Location: Elmsmere
(40.9284°N, 73.8207°W)
Time: 05:04:12
(UTC+00:00)

NOSS 3-3 (C) - Pass Details

Date: 29 October 2020
Orbit: 825 x 1387 km, 63.4° (Epoch: 22 November)

Event Time Altitude Azimuth Distance (km) Brightness Sun altitude
Rises 23:24:23 0° 219° (SW) 3,386 7.5 -17.5°
Reaches altitude 10° 23:26:44 10° 222° (SW) 2,488 6.8 -18.0°
Maximum altitude 23:32:27 73° 306° (NW) 963 4.1 -19.1°
Enters shadow 23:38:38 11° 31° (NNE) 2,688 6.0 -20.2°
